Location: Boiro
(42.6475°N, 8.8834°W)
Time: 13:40:30
(UTC+01:00)

Envisat - Pass Details

Date: 28 October 2021
Orbit: 764 x 766 km, 98.2° (Epoch: 07 December)

Event Time Altitude Azimuth Distance (km) Brightness Sun altitude
Rises 20:05:17 0° 209° (SSW) 3,220 6.9 -6.5°
Reaches altitude 10° 20:08:23 10° 230° (SW) 2,299 6.6 -7.0°
Maximum altitude 20:11:36 17° 269° (W) 1,874 6.4 -7.6°
Drops below altitude 10° 20:14:51 10° 309° (NW) 2,310 6.1 -8.2°
Sets 20:18:00 0° 330° (NNW) 3,242 6.5 -8.8°
